PEGASUS DEB

Satellite information

Favourite Embed

Satellite Type and Status

DEBRISIN ORBIT

Key statistics

Satellite PEGASUS DEB at a glance.

Uptime

11477

Days in orbit

Revolutions

≈ 14.2

Per day

Orbit

LEO

Low Earth Orbit

Inclination

81.8

Latest

Satellite identification and parameters

Extended collection of information and parameters for PEGASUS DEB.

Object identification

Identified? True

Debris? True

Object name: PEGASUS DEB

International designator: 1994-029AFZ

Object number (NORAD): 39926

Object ID (CCSDS): 39926

Country: UNITED STATES OF AMERICA (US)

Current information (Y/N): Y

RCS size: SMALL

Orbital parameters

Period: 101.142 minutes

Inclination: 81.8394 deg

SMA: 7190.877 km

Apoapsis: 1028.023 km

Periapsis: 597.46 km

RAAN: 134.2664 deg

Eccentricy: 0.02993811

Argument of periapsis: 186.5605 deg

Mean anomaly: 188.0331 deg

Mean motion: 14.23737793 rev/day

Mean motion (dot): 0.00001888 rev/day2

B* drag term: 0.00051423195 1/REarth

Two-line elements (TLE)

Creation date: Oct. 19, 2025, 2:20 a.m.

Reference frame: TEME

Reference center: EARTH

Epoch: Oct. 9, 2025, 8:22 p.m. UTC

TLE line 0: 0 PEGASUS DEB

TLE line 1: 1 39926U 94029AFZ 25282.84864630 .00001888 00000-0 51423-3 0 9994

TLE line 2: 2 39926 81.8394 134.2664 0299381 186.5605 188.0331 14.23737793587115

Live tracking on map

Real-time ground track for satellite PEGASUS DEB.

In-orbit conjunctions

A list of the most updated potential collisions computed for object PEGASUS DEB.

Target Orbit TCA Probability of collision Miss distance Type
FENGYUN 1C DEB SSO 2025-03-24 10:44:24 0.0001028827 229.0 (m) DEBRIS
NOAA 16 DEB SSO 2025-02-02 14:37:57 0.0001118683 116.0 (m) DEBRIS
FENGYUN 1C DEB SSO 2024-10-10 05:47:31 0.0001226022 88.0 (m) DEBRIS

Associated space launch

PEGASUS DEB was lifted into orbit during the mission ‘Pegasus HAPS | Space Test Experiments Platform 2 (STEP-2)’, on board a Pegasus HAPS space rocket.

The launch took place on May 19, 1994, 5:03 p.m. from Edwards Air Force Base.

For more information about the launch, click the button.

Launch to space Pegasus HAPS | Space Test Experiments Platform 2 (STEP-2)
Pegasus HAPS | Space Test Experiments Platform 2 (STEP-2)

Agency: N/A

Status: Launch Successful

Launch date: May 19, 1994, 5:03 p.m. UTC

Rocket: Pegasus HAPS

Launch pad: Edwards Air Force Base

Location: Air launch to orbit

...

Latest news about this satellite

There are no fresh news available about this satellite. Check back as we update our databases every day.


Newsletter sign-up

Weekly statistics, charts and insights to help you stay on top of the space industry.